Location: Chandolas
(44.4033°N, 4.2533°E)
Time: 08:48:47
(UTC+00:00)

BREEZE-M DEB (TANK) - Pass Details

Date: 15 November 2019
Orbit: 313 x 16427 km, 49.5° (Epoch: 14 December)

Event Time Altitude Azimuth Distance (km) Brightness Sun altitude
Exits shadow 04:18:30 30° 293° (WNW) 4,196 6.2 -25.0°
Maximum altitude 04:26:19 75° 14° (NNE) 1,439 4.3 -23.6°
Drops below altitude 10° 04:31:02 10° 101° (E) 2,243 6.5 -22.7°
Sets 04:32:24 0° 103° (ESE) 2,828 7.4 -22.5°
